Location: Pian di Sc�
(43.6333°N, 11.5500°E)
Time: 16:35:14
(UTC+00:00)

Meteor 2-5 Rocket - Pass Details

Date: 07 August 2020
Orbit: 832 x 912 km, 81.2° (Epoch: 17 September)

Event Time Altitude Azimuth Distance (km) Brightness Sun altitude
Rises 02:02:14 0° 342° (NNW) 3,447 7.3 -19.5°
Reaches altitude 10° 02:04:48 10° 335° (NNW) 2,494 6.4 -19.1°
Maximum altitude 02:10:00 40° 268° (W) 1,235 4.2 -18.5°
Enters shadow 02:11:40 32° 231° (SW) 1,410 4.3 -18.3°
